Location: Las Navas
(40.6024°N, 4.3345°W)
Time: 09:07:54
(UTC+00:00)

Cosmos 1603 - Pass Details

Date: 03 April 2020
Orbit: 831 x 859 km, 71.0° (Epoch: 29 May)

Event Time Altitude Azimuth Distance (km) Brightness Sun altitude
Rises 19:36:15 0° 190° (S) 3,379 6.8 -10.4°
Reaches altitude 10° 19:38:43 10° 187° (S) 2,445 6.0 -10.9°
Maximum altitude 19:44:13 59° 109° (ESE) 963 3.7 -11.8°
Drops below altitude 10° 19:49:42 10° 31° (NNE) 2,448 6.0 -12.8°
Sets 19:52:10 0° 28° (NNE) 3,384 6.8 -13.3°
